WGN618 KOKC-KPHX

Flight info

Callsign WGN618
Flight time N/A
Altitude 32000
Route OLGUY3 YOUSE PNH ZUN EAGUL6
Aircraft MD1F/H-SDE1E2E3FGHIJ2J3J4J5M1RWXY/LB1D1

Departure

Time 2026-04-17 22:59
Airport OKC Will Rogers World Airport (KOKC)

Arrival

Time N/A
Airport Phoenix Sky Harbor International Airport (KPHX)
Time Latitude Longitude Altitude Speed Heading
2026-04-17 22:47 35.40066 -97.59225 1295 ft 0 kts 276°
2026-04-17 22:50 35.40064 -97.59197 1295 ft 3 kts 275°
2026-04-17 22:51 35.40063 -97.59182 1294 ft 1 kts 278°
2026-04-17 22:51 35.40061 -97.59170 1294 ft 0 kts 288°
2026-04-17 22:51 35.40058 -97.59160 1294 ft 1 kts 306°
2026-04-17 22:51 35.40053 -97.59152 1294 ft 1 kts 321°
2026-04-17 22:52 35.40047 -97.59148 1294 ft 1 kts 337°
2026-04-17 22:52 35.40040 -97.59145 1294 ft 0 kts 353°
2026-04-17 22:52 35.40035 -97.59144 1294 ft 0 kts
2026-04-17 22:55 35.40039 -97.59144 1294 ft 1 kts
2026-04-17 22:55 35.40062 -97.59143 1294 ft 4 kts
2026-04-17 22:56 35.40103 -97.59145 1294 ft 6 kts
2026-04-17 22:56 35.40146 -97.59110 1293 ft 9 kts 58°
2026-04-17 22:56 35.40184 -97.59064 1292 ft 7 kts 358°
2026-04-17 22:56 35.40237 -97.59062 1292 ft 8 kts
2026-04-17 22:57 35.40300 -97.59062 1292 ft 10 kts 359°
2026-04-17 22:57 35.40371 -97.59064 1293 ft 11 kts 359°
2026-04-17 22:57 35.40449 -97.59063 1293 ft 11 kts 10°
2026-04-17 22:57 35.40490 -97.58986 1291 ft 11 kts 70°
2026-04-17 22:58 35.40464 -97.58913 1290 ft 10 kts 149°
2026-04-17 22:58 35.40389 -97.58894 1290 ft 12 kts 176°
2026-04-17 22:58 35.40255 -97.58889 1289 ft 41 kts 180°
2026-04-17 22:58 35.39742 -97.58893 1291 ft 111 kts 180°
2026-04-17 22:59 35.38785 -97.58890 1318 ft 166 kts 179°
2026-04-17 22:59 35.37659 -97.58844 1862 ft 170 kts 176°
2026-04-17 22:59 35.36594 -97.58648 2918 ft 151 kts 173°
2026-04-17 22:59 35.35601 -97.58775 3377 ft 152 kts 213°
2026-04-17 23:00 35.35089 -97.59887 3934 ft 162 kts 260°
2026-04-17 23:00 35.35426 -97.61187 4282 ft 188 kts 302°
2026-04-17 23:00 35.36537 -97.62318 4602 ft 208 kts 317°
2026-04-17 23:00 35.37470 -97.63726 4821 ft 204 kts 277°
2026-04-17 23:01 35.37487 -97.65425 5168 ft 199 kts 248°
2026-04-17 23:01 35.37057 -97.67109 5506 ft 222 kts 251°
2026-04-17 23:01 35.36717 -97.69053 6054 ft 242 kts 258°
2026-04-17 23:01 35.36554 -97.71119 6886 ft 252 kts 263°
2026-04-17 23:02 35.36492 -97.73275 7760 ft 261 kts 266°
2026-04-17 23:02 35.36482 -97.75413 8683 ft 266 kts 267°
2026-04-17 23:02 35.36498 -97.77551 9658 ft 267 kts 266°
2026-04-17 23:02 35.36518 -97.79805 10370 ft 280 kts 268°
2026-04-17 23:03 35.36546 -97.82201 10638 ft 307 kts 268°
2026-04-17 23:03 35.36575 -97.84933 10892 ft 336 kts 267°
2026-04-17 23:03 35.36610 -97.87882 11105 ft 365 kts 267°
2026-04-17 23:03 35.36649 -97.91048 11761 ft 379 kts 269°
2026-04-17 23:04 35.36696 -97.94273 12617 ft 388 kts 268°
2026-04-17 23:04 35.36742 -97.97543 13569 ft 393 kts 268°
2026-04-17 23:04 35.36785 -98.00845 14523 ft 397 kts 269°
2026-04-17 23:04 35.36832 -98.04118 15512 ft 399 kts 270°
2026-04-17 23:05 35.36929 -98.07407 16497 ft 400 kts 269°
2026-04-17 23:05 35.37003 -98.10714 17332 ft 404 kts 268°
2026-04-17 23:05 35.37018 -98.14069 18194 ft 407 kts 267°
2026-04-17 23:05 35.37053 -98.17462 19016 ft 412 kts 267°
2026-04-17 23:06 35.37122 -98.20967 19914 ft 414 kts 267°
2026-04-17 23:06 35.37185 -98.24451 20715 ft 417 kts 266°
2026-04-17 23:06 35.37233 -98.27924 21507 ft 420 kts 266°
2026-04-17 23:06 35.37289 -98.31432 22348 ft 422 kts 267°
2026-04-17 23:07 35.37364 -98.34971 23114 ft 425 kts 267°
2026-04-17 23:07 35.37447 -98.38467 23833 ft 428 kts 267°
2026-04-17 23:07 35.37526 -98.42036 24489 ft 432 kts 267°
2026-04-17 23:07 35.37563 -98.45682 25137 ft 436 kts 267°
2026-04-17 23:08 35.37580 -98.49380 25818 ft 438 kts 266°